CZ-6A DEB, 61275

Orbit data source: Space-Track

CZ-6A DEB, 61275 is space debris in LEO originally from a launch on Tue, 06 Aug 2024 UTC launched from the Taiyaun Space Center, China (TSC). Debris objects in space refer to the collection of defunct objects orbiting the Earth. Examples of debris include non-operational satellites, rocket bodies, and fragments generated from explosions, collisions, or faulty payload assembly.

Loading next visibility...
Identifier
61275, 2024-140SL
Orbit
LEO
Country
Flag of CNCN / PRC
Related business
Manufacturer
SAST
Mission
Spacecraft
Bus & Motor
Unknown
Mass
Unknown
Launch date (UTC)
2024-08-06 (2 years ago)
Launch vehicle
Unknown
Launch site
Taiyaun Space Center, China (TSC)
Object type
Payload
Rocket body
Debris
Shape & HBR
Unknown shape, 0.1 m
Radar Cross Section
Medium (>0.1 m² and <1 m²)

Expand to show TLE details & history
Last TLE update: 14 hours ago

TLE from 14 hours ago
0 CZ-6A DEB
1 61275U 24140SL  26171.26584691  .00002798  00000-0  15831-2 0  9996
2 61275  88.9628 273.3978 0135299 206.8350 152.5791 14.05379639 92925
Epoch: 2026-06-20T06:22Z
TLE epoch observation values (Epoch: 2026-06-20T06:22:49.173Z)
Latitude
0.00001°
Longitude
-90.79003°
Altitude
965.664 km
Speed
7.324 km/s
True Right ascension
18h 13m 35s
True Declination
0° 00' 00"
Sunlit
Object was in full shadow at epoch
Visualization orbit readout
Latitude
Unknown
Longitude
Unknown
Altitude
Unknown
Speed
Unknown
Apparent Right ascension
Unknown
Apparent Declination
Unknown
Sunlit
N/A
Visualization observer readout
Local Sidereal Time
07:23:28
Azimuth
Unknown
Elevation
Unknown
Doppler factor
Unknown
Orbital elements
Apogee altitude
970.294 km
Perigee altitude
774.101 km
Semi-major axis
7,250.334 km
Eccentricity
0.01353
Inclination
88.9628°
RAAN
273.3978°
Arg. of periapsis
206.835°
True anomaly
153.28252°
Mean anomaly
152.5791°
Eccentric anomaly
152.93186°
Mean motion
3.51565 °/min
Orbital period
102.4 mins
BSTAR
0.0015831
Loading maneuver chart data...
Computing Atmospheric mass density...
Loading historical data...
Loading historical data...
Loading historical data...
Loading historical data...
Loading historical data...
Loading historical data...
Loading historical data...

Documentation

Showing up to 5 results
|